Tracking 30166 objects as of 22-Jan-2025
HD Live streaming from Space Station
objects crossing your sky now

DMSP 5D-2 F11 DEB

Track DMSP 5D-2 F11 DEB now!
10-day predictions


NORAD ID: 28327
Int'l Code: 1991-082AQ
Perigee: 742.6 km
Apogee: 776.8 km
Inclination: 98.7 °
Period: 99.9 minutes
Semi major axis: 7130 km
RCS: 0.0132 m2 (small)
Launch date: November 28, 1991
Source: United States (US)
Launch site: AIR FORCE WESTERN TEST RANGE (AFWTR)

Note: This is SATELLITE DEBRIS
Your satellite tracking list
Your tracking list is empty




NASA's NSSDC Master Catalog

Two Line Element Set (TLE):
1 28327U 91082AQ  25020.45352035  .00012428  00000-0  37983-2 0  9997
2 28327  98.6972  95.5735 0024008  76.6671 295.4882 14.41799347 75050
Source of the keplerian elements: AFSPC